Regional Weather Roundup
Issued by NWS

Home | Current Version | Previous Version | Text Only | Print | Product List | Glossary On
Versions: 1 2 3 4 5 6 7 8 9 10 11 12 13 14 15 16 17 18 19 20 21 22 23 24 25 26 27 28 29 30 31 32 33 34 35 36 37 38 39 40 41 42 43 44 45 46 47 48 49 50
000
ASUS43 KOAX 231410
RWRNE

WEATHER ROUNDUP FOR NEBRASKA
NATIONAL WEATHER SERVICE OMAHA NE
900 AM CDT WED JUL 23 2014

NOTES: SATELLITE DATA IS BEING USED TO AUGMENT CLOUD COVER ABOVE
       12000 FEET.
       "FAIR" INDICATES FEW OR NO CLOUDS BELOW 12,000 FEET WITH NO
       SIGNIFICANT WEATHER AND/OR OBSTRUCTIONS TO VISIBILITY.

  * THESE STATIONS DO NOT REPORT WEATHER SUCH AS RAIN...SNOW OR FOG.

NEZ001>004-019>022-054>056-231500-
NEBRASKA PANHANDLE

CITY           SKY/WX    TMP DP  RH WIND       PRES   REMARKS
SCOTTSBLUFF    CLOUDY    71  59  65 SE18      30.33S
ALLIANCE       SUNNY     70  58  65 SE14      30.33S
CHADRON        MOSUNNY   73  59  61 S13       30.26F
KIMBALL        LGT RAIN  64  63  97 E17       30.37F
SIDNEY         CLOUDY    69  60  73 E20       30.38F
$$

NEZ057>060-069>072-079>082-231500-
SOUTHWEST NEBRASKA

CITY           SKY/WX    TMP DP  RH WIND       PRES   REMARKS
NORTH PLATTE   LGT RAIN  65  62  90 NE3       30.39F
IMPERIAL       CLOUDY    69  64  84 NE23G29   30.36R
LEXINGTON      PTSUNNY   69  65  88 NE7       30.31F
MCCOOK         SUNNY     69  64  84 E9        30.29R
OGALLALA       CLOUDY    64  58  80 SE15G21   30.34F
$$

NEZ005>010-023>029-035>040-094-231500-
NORTH CENTRAL NEBRASKA

CITY           SKY/WX    TMP DP  RH WIND       PRES   REMARKS
VALENTINE      PTSUNNY   72  64  76 E6        30.28R
AINSWORTH      PTSUNNY   71  60  69 SE17      30.29R
BROKEN BOW     CLOUDY    67  60  78 SE7       30.33F
O`NEILL        MOSUNNY   69  56  63 SE10      30.31F
ORD            SUNNY     69  59  70 VRB7      30.30F
THEDFORD       CLOUDY    68  63  83 SE14      30.28F
$$

NEZ041-046>049-061>064-073>077-083>087-231500-
SOUTH CENTRAL NEBRASKA

CITY           SKY/WX    TMP DP  RH WIND       PRES   REMARKS
GRAND ISLAND   SUNNY     69  62  78 NE9       30.30S
AURORA         SUNNY     69  62  78 NE6       30.29R
HASTINGS       MOSUNNY   71  58  63 E10       30.27S
HEBRON         MOSUNNY   75  62  64 E14       30.22F
HOLDREGE       MOSUNNY   72  62  71 NE9       30.28R
KEARNEY *      MOSUNNY   70  61  73 NE14      30.30R
YORK           SUNNY     68  63  83 NE9       30.28S
$$

NEZ011>018-030>034-042>045-231500-
NORTHEAST NEBRASKA

CITY           SKY/WX    TMP DP  RH WIND       PRES   REMARKS
NORFOLK        SUNNY     71  57  61 N6        30.30S
ALBION         SUNNY     69  57  67 E7        30.31R
BLAIR          SUNNY     69  52  55 N5        30.25R
COLUMBUS *     MOSUNNY   70  57  64 NE7       30.29S
FREMONT        MOSUNNY   70  60  69 N6        30.27R
TEKAMAH        MOSUNNY   70  59  68 N12       30.26R
WAYNE          SUNNY     68  60  76 N3        30.29F
$$

NEZ050>053-065>068-078-088>093-231500-
SOUTHEAST NEBRASKA

CITY           SKY/WX    TMP DP  RH WIND       PRES   REMARKS
LINCOLN        SUNNY     73  58  59 N5        30.27R
OMAHA EPPLEY   MOSUNNY   71  59  65 N9        30.24R
BEATRICE         N/A    N/A N/A N/A MISG        N/A
FALLS CITY     SUNNY     74  64  71 N8        30.19S
NEBRASKA CITY  SUNNY     69  59  69 NE7       30.23S
PLATTSMOUTH    SUNNY     70  58  65 N5        30.23R
$$

NEZ044-045-051>053-067-231500-
OMAHA AREA

CITY           SKY/WX    TMP DP  RH WIND       PRES   REMARKS
OMAHA EPPLEY   MOSUNNY   71  59  65 N9        30.24R
BLAIR          SUNNY     69  52  55 N5        30.25R
FREMONT        MOSUNNY   70  60  69 N6        30.27R
MILLARD        SUNNY     72  59  63 N6        30.24R
OFFUTT AFB     SUNNY     72  61  68 N6        30.23R
PLATTSMOUTH    SUNNY     70  58  65 N5        30.23R
WAHOO          FAIR      69  61  75 N7        30.26S
$$


USA.gov is the U.S. government's official web portal to all federal, state and local government web resources and services.